Regional Weather Roundup
Issued by NWS

Home | Current Version | Previous Version | Graphics & Text | Print | Product List | Glossary On
Versions: 1 2 3 4 5 6 7 8 9 10 11 12 13 14 15 16 17 18 19 20 21 22 23 24 25 26 27 28 29 30 31 32 33 34 35 36 37 38 39 40 41 42 43 44 45 46 47 48 49 50
000
ASUS43 KLSX 221307
RWRMO

WEATHER SUMMARY FOR MISSOURI
NATIONAL WEATHER SERVICE SPRINGFIELD MO
800 AM CDT TUE JUL 22 2014

NOTE: "FAIR" INDICATES FEW OR NO CLOUDS BELOW 12,000 FEET WITH NO
       SIGNIFICANT WEATHER AND/OR OBSTRUCTIONS TO VISIBILITY.
       CURRENT SKY AND/OR WEATHER CONDITIONS ARE NOT AVAILABLE FOR
       CHILLICOTHE AND FARMINGTON.

MOZ001>031-035>038-043-044-053-054-221400-
...NORTHERN AND WESTERN MISSOURI...

CITY           SKY/WX    TMP DP  RH WIND       PRES   REMARKS
KANSAS CTY INT MOSUNNY   78  74  87 SW12      30.03R FOG
KANSAS C DTWN  MOSUNNY   80  73  79 SW10      30.02R
LEE`S SUMMIT   SUNNY     76  72  87 SW10      30.04F
ST JOSEPH      MOSUNNY   78  75  90 S7        30.01R FOG
CHILLICOTHE      N/A     78  72  81 S9        30.02F
KIRKSVILLE     MOSUNNY   76  70  82 SW13      30.02F

$$
MOZ066>068-077>081-088>096-101>105-221400-
...SOUTHWEST MISSOURI...

CITY           SKY/WX    TMP DP  RH WIND       PRES   REMARKS
SPRINGFIELD    SUNNY     73  68  84 S8        30.12R
JOPLIN         SUNNY     75  69  81 S7        30.11R

$$
MOZ032>034-039>042-045>050-055>058-069>072-221400-
...CENTRAL MISSOURI...

CITY           SKY/WX    TMP DP  RH WIND       PRES   REMARKS
COLUMBIA       SUNNY     73  68  84 S7        30.08F
JEFFERSON CITY SUNNY     74  67  78 SE3       30.08S
ROLLA          SUNNY     73  65  75 SW12      30.10R
SEDALIA        SUNNY     76  69  79 S9        30.08S
WHITEMAN AFB   MOSUNNY   75  63  65 S13       30.06S
OSAGE BEACH    SUNNY     72  66  83 S3        30.10S

$$
MOZ051-052-059>065-221400-
...EAST CENTRAL MISSOURI...

CITY           SKY/WX    TMP DP  RH WIND       PRES   REMARKS
ST LOUIS INTL  SUNNY     77  66  68 SW8       30.10S
SPIRIT OF STL  SUNNY     73  66  78 SW5       30.08S
ST CHARLES     SUNNY     72  67  84 S3        30.08S

$$
MOZ072>076-082>087-097>100-106>115-221400-
...SOUTH CENTRAL AND SOUTHEAST MISSOURI...

CITY           SKY/WX    TMP DP  RH WIND       PRES   REMARKS
CAPE GIRARDEAU SUNNY     70  68  93 CALM      30.10F FOG
FARMINGTON     SUNNY     66  64  94 CALM      30.14S
POPLAR BLUFF   SUNNY     71  65  81 CALM      30.10R HAZE
WEST PLAINS    SUNNY     72  66  81 CALM      30.14R

$$



USA.gov is the U.S. government's official web portal to all federal, state and local government web resources and services.